Regional Weather Roundup
Issued by NWS Little Rock, AR

Home | Current Version | Previous Version | Text Only | Print | Product List | Glossary Off
Versions: 1 2 3 4 5 6 7 8 9 10 11 12 13 14 15 16 17 18 19 20 21 22 23 24 25 26 27 28 29 30 31 32 33 34 35 36 37 38 39 40 41 42 43 44 45 46 47 48 49 50

000
ASUS44 KLZK 291805
RWRLZK

WEATHER ROUNDUP FOR ARKANSAS
NATIONAL WEATHER SERVICE LITTLE ROCK AR
1200 PM CST THU JAN 29 2015

NOTE: "FAIR" INDICATES FEW OR NO CLOUDS BELOW 12,000 FEET WITH NO
SIGNIFICANT WEATHER AND/OR OBSTRUCTIONS TO VISIBILITY.

ARZ001-003-010-029-291900-
NORTHWEST ARKANSAS

CITY           SKY/WX    TMP DP  RH WIND       PRES   REMARKS
FAYETTEVILLE   CLOUDY    43  34  70 N13G25    30.31R
6HR MIN TEMP:  43; 6HR MAX TEMP:  50;

FORT SMITH     MOSUNNY   55  35  47 N23       30.29R
6HR MIN TEMP:  46; 6HR MAX TEMP:  57;

HARRISON       CLOUDY    41  35  79 NW15G30   30.27R
6HR MIN TEMP:  41; 6HR MAX TEMP:  53;

BENTONVILLE    CLOUDY    43  30  61 NW15G21   30.33S
6HR MIN TEMP:  43; 6HR MAX TEMP:  52;

ROGERS         CLOUDY    41  32  70 NW15G25   30.33R
6HR MIN TEMP:  41; 6HR MAX TEMP:  50;

SILOAM SPGS    CLOUDY    43  28  56 N15G30    30.35R
HIGHFILL       LGT RAIN  42  33  70 NW20G29   30.32R
6HR MIN TEMP:  42; 6HR MAX TEMP:  50; 6HR PCP: TRACE;

$$

ARZ004-005-016-291900-
NORTH CENTRAL ARKANSAS

CITY           SKY/WX    TMP DP  RH WIND       PRES   REMARKS
BATESVILLE     PTSUNNY   55  37  50 NW10G23   30.18R
6HR MIN TEMP:  52; 6HR MAX TEMP:  59;

FLIPPIN        CLOUDY    48  36  61 NW17G24   30.24R
6HR MIN TEMP:  48; 6HR MAX TEMP:  57;

MTN HOME       CLOUDY    47  37  68 NW13G21   30.22R
6HR MIN TEMP:  47; 6HR MAX TEMP:  55;

$$

ARZ040-041-291900-
WEST CENTRAL ARKANSAS

CITY           SKY/WX    TMP DP  RH WIND       PRES   REMARKS
MENA           CLOUDY    59  37  44 NW14      30.24R
MOUNT IDA      CLOUDY    59  36  42 NW9       30.20R
6HR MIN TEMP:  55; 6HR MAX TEMP:  62;

$$

ARZ009-017-025-026-028-291900-
NORTHEAST ARKANSAS

CITY           SKY/WX    TMP DP  RH WIND       PRES   REMARKS
CORNING        FAIR      54  39  58 NW21G26   30.15R
JONESBORO      PTSUNNY   55  40  56 NW12G21   30.14R
6HR MIN TEMP:  50; 6HR MAX TEMP:  58;

NEWPORT        PTSUNNY   60  40  47 NW18G25   30.17R
6HR MIN TEMP:  45; 6HR MAX TEMP:  62;

WALNUT RIDGE   PTSUNNY   55  36  47 NW20      30.16R
6HR MIN TEMP:  46; 6HR MAX TEMP:  57;

BLYTHEVILLE    PTSUNNY   63  44  50 N18       30.11R
6HR MIN TEMP:  51; 6HR MAX TEMP:  63;

$$

ARZ022-023-033-042-044-291900-
CENTRAL ARKANSAS

CITY           SKY/WX    TMP DP  RH WIND       PRES   REMARKS
LITTLE ROCK    CLOUDY    64  36  35 NW16G24   30.16R
6HR MIN TEMP:  54; 6HR MAX TEMP:  64;

N LITTLE ROCK  PTSUNNY   63  41  44 NW9G21    30.16R
6HR MIN TEMP:  53; 6HR MAX TEMP:  63;

JACKSONVILLE   CLOUDY    62  40  44 NW10      30.15R
6HR MIN TEMP:  46; 6HR MAX TEMP:  64;

SEARCY         CLOUDY    63  40  42 NW14G23   30.16R
6HR MIN TEMP:  48; 6HR MAX TEMP:  63;

HOT SPRINGS    CLOUDY    62  38  40 NW8G16    30.19R
6HR MIN TEMP:  51; 6HR MAX TEMP:  63;

RUSSELLVILLE   MOSUNNY   62  38  40 W15G25    30.18S
6HR MIN TEMP:  39; 6HR MAX TEMP:  64;

CLINTON        FAIR      55  39  54 N8        30.21S HAZE
$$

ARZ036-291900-
EAST ARKANSAS

CITY           SKY/WX    TMP DP  RH WIND       PRES   REMARKS
WEST MEMPHIS   PTSUNNY   62  44  51 NW9       30.11S
6HR MIN TEMP:  51; 6HR MAX TEMP:  62;

$$

ARZ050-053-066-070-073-291900-
SOUTHWEST ARKANSAS

CITY           SKY/WX    TMP DP  RH WIND       PRES   REMARKS
ARKADELPHIA    FAIR      65  44  46 W8        30.19S
6HR MIN TEMP:  42; 6HR MAX TEMP:  65;

CAMDEN         PTSUNNY   72  45  37 MISG      30.17F
TEXARKANA      PTSUNNY   67  44  43 NW9       30.21S
6HR MIN TEMP:  50; 6HR MAX TEMP:  67;

EL DORADO      PTSUNNY   64  50  60 W9        30.18F
6HR MIN TEMP:  51; 6HR MAX TEMP:  65;

DE QUEEN       CLOUDY    65  39  38 NW12G20   30.22R
6HR MIN TEMP:  37; 6HR MAX TEMP:  65;

$$

ARZ056-057-069-291900-
SOUTHEAST ARKANSAS

CITY           SKY/WX    TMP DP  RH WIND       PRES   REMARKS
PINE BLUFF     CLOUDY    65  44  46 NW13      30.15R
6HR MIN TEMP:  53; 6HR MAX TEMP:  66;

STUTTGART      CLOUDY    63  45  51 NW12      30.14S
6HR MIN TEMP:  52; 6HR MAX TEMP:  63;

MONTICELLO     MOSUNNY   68  48  48 W10       30.14F
6HR MIN TEMP:  54; 6HR MAX TEMP:  69;


$$





USA.gov is the U.S. government's official web portal to all federal, state and local government web resources and services.